Time,TemperatureF,DewpointF,PressureIn,WindDirection,WindDirectionDegrees,WindSpeedMPH,WindSpeedGustMPH,Humidity,HourlyPrecipIn,Conditions,Clouds,dailyrainin,SoftwareType,DateUTC
2013-03-06 00:00:00,49.7,43.7,29.65,SSE,155,1.7,2.9,80,0.03,,,0.00,WUHU216HW,2013-03-06 08:00:00,
2013-03-06 00:05:00,49.7,44.0,29.65,SSE,158,1.9,2.9,81,0.02,,,0.00,WUHU216HW,2013-03-06 08:05:00,
2013-03-06 00:10:00,49.7,44.4,29.65,SSE,158,1.6,2.7,82,0.02,,,0.00,WUHU216HW,2013-03-06 08:10:00,
2013-03-06 00:15:00,49.7,44.0,29.65,SSE,158,0.9,2.5,81,0.01,,,0.00,WUHU216HW,2013-03-06 08:15:00,
2013-03-06 00:20:00,49.7,44.4,29.65,South,177,2.2,2.9,82,0.00,,,0.00,WUHU216HW,2013-03-06 08:20:00,
2013-03-06 00:25:00,49.7,44.0,29.65,SSE,152,1.9,2.9,81,0.00,,,0.00,WUHU216HW,2013-03-06 08:25:00,
2013-03-06 00:30:00,49.7,44.0,29.65,SSE,158,2.2,2.9,81,0.00,,,0.00,WUHU216HW,2013-03-06 08:30:00,
2013-03-06 00:35:00,49.7,44.0,29.65,SSE,161,2.3,3.4,81,0.00,,,0.00,WUHU216HW,2013-03-06 08:35:00,
2013-03-06 00:40:00,49.7,44.0,29.66,SSE,161,1.6,3.4,81,0.00,,,0.00,WUHU216HW,2013-03-06 08:40:00,
2013-03-06 00:45:00,49.7,44.0,29.66,SSE,158,2.5,2.9,81,0.00,,,0.00,WUHU216HW,2013-03-06 08:45:00,
2013-03-06 00:50:00,49.7,44.0,29.66,SSE,158,1.8,3.1,81,0.00,,,0.00,WUHU216HW,2013-03-06 08:50:00,
2013-03-06 00:55:00,49.7,44.0,29.66,South,180,1.6,3.1,81,0.00,,,0.00,WUHU216HW,2013-03-06 08:55:00,
2013-03-06 01:00:00,49.7,44.0,29.66,SSE,158,2.5,2.9,81,0.00,,,0.00,WUHU216HW,2013-03-06 09:00:00,
2013-03-06 01:05:00,49.7,44.4,29.66,SSE,158,2.9,3.1,82,0.00,,,0.00,WUHU216HW,2013-03-06 09:05:00,
2013-03-06 01:10:00,49.7,44.0,29.66,South,173,2.1,3.4,81,0.00,,,0.00,WUHU216HW,2013-03-06 09:10:00,
2013-03-06 01:15:00,49.7,44.0,29.66,South,180,2.0,3.4,81,0.00,,,0.00,WUHU216HW,2013-03-06 09:15:00,
2013-03-06 01:20:00,49.7,44.0,29.66,SE,135,2.2,3.4,81,0.00,,,0.00,WUHU216HW,2013-03-06 09:20:00,
2013-03-06 01:25:00,49.9,44.2,29.66,South,180,2.2,2.5,81,0.00,,,0.00,WUHU216HW,2013-03-06 09:25:00,
2013-03-06 01:30:00,49.9,44.2,29.66,South,170,2.0,2.7,81,0.00,,,0.00,WUHU216HW,2013-03-06 09:30:00,
2013-03-06 01:35:00,49.9,44.2,29.66,SSE,158,2.5,3.1,81,0.00,,,0.00,WUHU216HW,2013-03-06 09:35:00,
2013-03-06 01:40:00,49.9,44.2,29.66,SSE,158,2.5,3.8,81,0.00,,,0.00,WUHU216HW,2013-03-06 09:40:00,
2013-03-06 01:45:00,50.0,44.1,29.66,SSE,158,2.9,3.8,80,0.00,,,0.00,WUHU216HW,2013-03-06 09:45:00,
2013-03-06 01:50:00,50.0,44.1,29.66,South,180,3.6,3.6,80,0.00,,,0.00,WUHU216HW,2013-03-06 09:50:00,
2013-03-06 01:55:00,50.0,44.1,29.67,SSE,164,3.3,4.9,80,0.01,,,0.01,WUHU216HW,2013-03-06 09:55:00,
2013-03-06 02:00:00,50.0,44.1,29.66,SSE,159,2.6,4.9,80,0.01,,,0.01,WUHU216HW,2013-03-06 10:00:00,
2013-03-06 02:05:00,50.0,44.1,29.66,SSE,166,3.1,4.0,80,0.01,,,0.01,WUHU216HW,2013-03-06 10:05:00,
2013-03-06 02:10:00,50.0,44.1,29.66,SSE,158,3.6,3.8,80,0.01,,,0.01,WUHU216HW,2013-03-06 10:10:00,
2013-03-06 02:15:00,50.0,44.1,29.66,SSE,158,2.5,4.0,80,0.01,,,0.01,WUHU216HW,2013-03-06 10:15:00,
2013-03-06 02:20:00,50.0,44.1,29.66,South,169,2.9,4.3,80,0.01,,,0.01,WUHU216HW,2013-03-06 10:20:00,
2013-03-06 02:25:00,50.0,44.1,29.65,SSE,162,2.7,4.3,80,0.01,,,0.01,WUHU216HW,2013-03-06 10:25:00,
2013-03-06 02:30:00,50.0,44.1,29.66,South,180,1.8,3.8,80,0.01,,,0.01,WUHU216HW,2013-03-06 10:30:00,
2013-03-06 02:35:00,50.0,44.1,29.66,South,180,2.5,4.7,80,0.01,,,0.01,WUHU216HW,2013-03-06 10:35:00,
2013-03-06 02:40:00,49.9,44.2,29.66,SW,225,2.7,4.7,81,0.02,,,0.01,WUHU216HW,2013-03-06 10:40:00,
2013-03-06 02:45:00,49.7,44.0,29.66,SSE,158,1.8,3.4,81,0.02,,,0.02,WUHU216HW,2013-03-06 10:45:00,
2013-03-06 02:50:00,49.7,44.0,29.66,South,185,1.5,3.4,81,0.02,,,0.02,WUHU216HW,2013-03-06 10:50:00,
2013-03-06 02:55:00,49.5,44.2,29.67,SSW,197,1.7,5.1,82,0.01,,,0.02,WUHU216HW,2013-03-06 10:55:00,
2013-03-06 03:00:00,49.5,44.2,29.66,South,191,2.4,5.1,82,0.02,,,0.03,WUHU216HW,2013-03-06 11:00:00,
2013-03-06 03:05:00,49.5,44.2,29.66,SSW,203,4.0,4.7,82,0.02,,,0.03,WUHU216HW,2013-03-06 11:05:00,
2013-03-06 03:10:00,49.3,44.3,29.66,SSW,205,3.4,6.3,83,0.02,,,0.03,WUHU216HW,2013-03-06 11:10:00,
2013-03-06 03:15:00,49.3,44.7,29.67,South,178,3.2,6.3,84,0.03,,,0.04,WUHU216HW,2013-03-06 11:15:00,
2013-03-06 03:20:00,49.3,44.7,29.68,South,180,4.0,5.6,84,0.04,,,0.05,WUHU216HW,2013-03-06 11:20:00,
2013-03-06 03:25:00,49.3,44.3,29.69,SSW,208,2.5,5.6,83,0.06,,,0.07,WUHU216HW,2013-03-06 11:25:00,
2013-03-06 03:30:00,49.3,44.7,29.68,WSW,240,5.7,9.6,84,0.09,,,0.10,WUHU216HW,2013-03-06 11:30:00,
2013-03-06 03:35:00,49.3,44.9,29.68,SSW,203,6.0,9.6,85,0.09,,,0.10,WUHU216HW,2013-03-06 11:35:00,
2013-03-06 03:40:00,49.3,45.3,29.67,SSW,199,5.4,8.7,86,0.08,,,0.10,WUHU216HW,2013-03-06 11:40:00,
2013-03-06 03:45:00,49.3,44.9,29.68,SSW,202,5.2,10.1,85,0.08,,,0.10,WUHU216HW,2013-03-06 11:45:00,
2013-03-06 03:50:00,49.3,44.9,29.68,WSW,248,3.1,10.1,85,0.08,,,0.10,WUHU216HW,2013-03-06 11:50:00,
2013-03-06 03:55:00,49.1,44.8,29.68,SSW,206,5.5,8.1,85,0.08,,,0.10,WUHU216HW,2013-03-06 11:55:00,
2013-03-06 04:00:00,49.1,44.8,29.68,South,187,4.8,8.1,85,0.07,,,0.10,WUHU216HW,2013-03-06 12:00:00,
2013-03-06 04:05:00,49.1,44.8,29.68,SSW,205,2.6,9.6,85,0.07,,,0.10,WUHU216HW,2013-03-06 12:05:00,
2013-03-06 04:10:00,49.1,44.8,29.69,SSW,203,4.0,9.6,85,0.07,,,0.10,WUHU216HW,2013-03-06 12:10:00,
2013-03-06 04:15:00,49.1,45.4,29.69,South,180,3.1,5.6,87,0.06,,,0.10,WUHU216HW,2013-03-06 12:15:00,
2013-03-06 04:20:00,49.1,45.4,29.69,South,180,2.9,5.4,87,0.04,,,0.10,WUHU216HW,2013-03-06 12:20:00,
2013-03-06 04:25:00,49.3,45.5,29.69,South,180,4.0,6.3,87,0.01,,,0.10,WUHU216HW,2013-03-06 12:25:00,
2013-03-06 04:30:00,49.3,45.5,29.69,SSE,168,2.9,6.3,87,0.00,,,0.10,WUHU216HW,2013-03-06 12:30:00,
2013-03-06 04:35:00,49.3,45.5,29.69,South,191,3.9,6.3,87,0.00,,,0.10,WUHU216HW,2013-03-06 12:35:00,
2013-03-06 04:40:00,49.3,45.3,29.70,South,187,2.3,6.3,86,0.00,,,0.10,WUHU216HW,2013-03-06 12:40:00,
2013-03-06 04:45:00,49.3,45.3,29.70,South,180,4.3,6.3,86,0.00,,,0.10,WUHU216HW,2013-03-06 12:45:00,
2013-03-06 04:50:00,49.5,45.7,29.70,SSW,203,5.6,6.3,87,0.00,,,0.10,WUHU216HW,2013-03-06 12:50:00,
2013-03-06 04:55:00,49.5,45.5,29.70,South,180,5.4,6.3,86,0.00,,,0.10,WUHU216HW,2013-03-06 12:55:00,
2013-03-06 05:00:00,49.3,45.3,29.70,South,180,6.3,7.4,86,0.00,,,0.10,WUHU216HW,2013-03-06 13:00:00,
2013-03-06 05:05:00,49.3,45.3,29.70,SSW,201,5.2,8.5,86,0.00,,,0.10,WUHU216HW,2013-03-06 13:05:00,
2013-03-06 05:10:00,49.3,45.3,29.70,South,180,4.9,8.5,86,0.00,,,0.10,WUHU216HW,2013-03-06 13:10:00,
2013-03-06 05:15:00,49.3,45.3,29.71,South,180,6.3,8.7,86,0.00,,,0.10,WUHU216HW,2013-03-06 13:15:00,
2013-03-06 05:20:00,49.3,45.3,29.71,South,180,5.6,8.7,86,0.00,,,0.10,WUHU216HW,2013-03-06 13:20:00,
2013-03-06 05:25:00,49.3,45.3,29.72,South,180,3.8,8.3,86,0.00,,,0.10,WUHU216HW,2013-03-06 13:25:00,
2013-03-06 05:30:00,49.1,45.1,29.71,SW,220,2.4,5.6,86,0.00,,,0.10,WUHU216HW,2013-03-06 13:30:00,
2013-03-06 05:35:00,49.1,44.8,29.71,SW,220,3.9,7.6,85,0.00,,,0.10,WUHU216HW,2013-03-06 13:35:00,
2013-03-06 05:40:00,49.0,44.7,29.71,SSW,209,2.8,7.6,85,0.00,,,0.10,WUHU216HW,2013-03-06 13:40:00,
2013-03-06 05:45:00,48.8,44.7,29.72,South,180,4.0,5.4,86,0.00,,,0.10,WUHU216HW,2013-03-06 13:45:00,
2013-03-06 05:50:00,48.6,44.3,29.72,South,180,2.7,5.4,85,0.00,,,0.10,WUHU216HW,2013-03-06 13:50:00,
2013-03-06 05:55:00,48.6,44.6,29.72,South,191,1.6,4.0,86,0.00,,,0.10,WUHU216HW,2013-03-06 13:55:00,
2013-03-06 06:00:00,48.6,44.6,29.73,South,184,2.0,4.0,86,0.00,,,0.10,WUHU216HW,2013-03-06 14:00:00,
2013-03-06 06:05:00,48.4,44.4,29.74,SSW,203,1.1,3.4,86,0.00,,,0.10,WUHU216HW,2013-03-06 14:05:00,
2013-03-06 06:10:00,48.4,44.4,29.74,SSW,203,0.7,2.7,86,0.00,,,0.10,WUHU216HW,2013-03-06 14:10:00,
2013-03-06 06:15:00,48.4,44.4,29.74,SSE,158,1.6,2.7,86,0.00,,,0.10,WUHU216HW,2013-03-06 14:15:00,
2013-03-06 06:20:00,48.4,44.4,29.75,SSW,203,1.1,2.0,86,0.00,,,0.10,WUHU216HW,2013-03-06 14:20:00,
2013-03-06 06:25:00,48.4,44.4,29.75,SW,220,1.2,1.8,86,0.00,,,0.10,WUHU216HW,2013-03-06 14:25:00,
2013-03-06 06:30:00,48.4,44.7,29.75,SW,214,1.2,2.5,87,0.00,,,0.10,WUHU216HW,2013-03-06 14:30:00,
2013-03-06 06:35:00,48.6,44.9,29.75,SSW,197,1.8,3.8,87,0.00,,,0.10,WUHU216HW,2013-03-06 14:35:00,
2013-03-06 06:40:00,48.6,44.9,29.76,South,180,1.8,3.8,87,0.00,,,0.10,WUHU216HW,2013-03-06 14:40:00,
2013-03-06 06:45:00,48.6,44.9,29.76,SW,225,4.5,4.9,87,0.00,,,0.10,WUHU216HW,2013-03-06 14:45:00,
2013-03-06 06:50:00,48.6,44.6,29.76,SW,225,4.0,4.9,86,0.00,,,0.10,WUHU216HW,2013-03-06 14:50:00,
2013-03-06 06:55:00,48.6,44.6,29.76,SSW,194,3.5,4.9,86,0.00,,,0.10,WUHU216HW,2013-03-06 14:55:00,
2013-03-06 07:00:00,48.4,44.1,29.76,SSW,195,3.7,5.6,85,0.00,,,0.10,WUHU216HW,2013-03-06 15:00:00,
2013-03-06 07:05:00,48.4,44.1,29.77,SSW,205,3.1,5.6,85,0.00,,,0.10,WUHU216HW,2013-03-06 15:05:00,
2013-03-06 07:10:00,49.0,44.9,29.77,SSW,193,3.9,5.8,86,0.00,,,0.10,WUHU216HW,2013-03-06 15:10:00,
2013-03-06 07:15:00,49.9,45.8,29.77,SW,225,3.4,5.8,86,0.00,,,0.10,WUHU216HW,2013-03-06 15:15:00,
2013-03-06 07:20:00,51.3,47.2,29.77,SW,215,4.5,6.0,86,0.00,,,0.10,WUHU216HW,2013-03-06 15:20:00,
2013-03-06 07:25:00,52.7,48.1,29.77,SSW,192,4.6,6.0,84,0.00,,,0.10,WUHU216HW,2013-03-06 15:25:00,
2013-03-06 07:30:00,53.1,47.8,29.77,SW,225,4.5,6.3,82,0.00,,,0.10,WUHU216HW,2013-03-06 15:30:00,
2013-03-06 07:35:00,52.9,47.3,29.78,SW,225,3.8,6.3,81,0.00,,,0.10,WUHU216HW,2013-03-06 15:35:00,
2013-03-06 07:40:00,52.9,47.0,29.78,SSE,158,5.1,8.3,80,0.00,,,0.10,WUHU216HW,2013-03-06 15:40:00,
2013-03-06 07:45:00,53.5,47.8,29.78,SSW,202,2.9,8.3,81,0.00,,,0.10,WUHU216HW,2013-03-06 15:45:00,
2013-03-06 07:50:00,53.6,47.3,29.79,SSW,203,9.2,9.2,79,0.00,,,0.10,WUHU216HW,2013-03-06 15:50:00,
2013-03-06 07:55:00,53.5,47.2,29.79,South,180,3.1,9.2,79,0.00,,,0.10,WUHU216HW,2013-03-06 15:55:00,
2013-03-06 08:00:00,53.3,46.6,29.79,SSW,206,3.7,9.2,78,0.00,,,0.10,WUHU216HW,2013-03-06 16:00:00,
2013-03-06 08:05:00,52.9,46.3,29.80,SW,223,3.4,8.5,78,0.00,,,0.10,WUHU216HW,2013-03-06 16:05:00,
2013-03-06 08:10:00,52.6,45.9,29.80,SW,229,3.6,8.5,78,0.00,,,0.10,WUHU216HW,2013-03-06 16:10:00,
2013-03-06 08:15:00,52.7,46.1,29.80,SSW,203,6.3,6.9,78,0.00,,,0.10,WUHU216HW,2013-03-06 16:15:00,
2013-03-06 08:20:00,53.3,46.6,29.81,SW,221,3.6,8.9,78,0.00,,,0.10,WUHU216HW,2013-03-06 16:20:00,
2013-03-06 08:25:00,54.0,47.0,29.81,SSW,195,4.1,8.9,77,0.00,,,0.10,WUHU216HW,2013-03-06 16:25:00,
2013-03-06 08:30:00,54.0,47.0,29.81,SW,225,6.7,7.6,77,0.00,,,0.10,WUHU216HW,2013-03-06 16:30:00,
2013-03-06 08:35:00,54.2,47.2,29.82,SSW,199,2.8,6.7,77,0.00,,,0.10,WUHU216HW,2013-03-06 16:35:00,
2013-03-06 08:40:00,54.4,47.0,29.82,SSW,203,4.0,6.7,76,0.00,,,0.10,WUHU216HW,2013-03-06 16:40:00,
2013-03-06 08:45:00,54.4,47.0,29.82,South,189,4.2,5.8,76,0.00,,,0.10,WUHU216HW,2013-03-06 16:45:00,
2013-03-06 08:50:00,54.2,46.5,29.82,SSW,206,4.7,7.2,75,0.00,,,0.10,WUHU216HW,2013-03-06 16:50:00,
2013-03-06 08:55:00,54.4,46.6,29.82,SSW,204,3.9,7.2,75,0.00,,,0.10,WUHU216HW,2013-03-06 16:55:00,
2013-03-06 09:00:00,54.4,46.6,29.83,SW,231,4.4,7.6,75,0.00,,,0.10,WUHU216HW,2013-03-06 17:00:00,
2013-03-06 09:05:00,54.5,46.8,29.83,SSW,198,5.3,7.6,75,0.00,,,0.10,WUHU216HW,2013-03-06 17:05:00,
2013-03-06 09:10:00,54.5,46.8,29.83,SW,225,3.8,7.6,75,0.00,,,0.10,WUHU216HW,2013-03-06 17:10:00,
2013-03-06 09:15:00,54.4,46.6,29.83,SSW,203,4.9,6.5,75,0.00,,,0.10,WUHU216HW,2013-03-06 17:15:00,
2013-03-06 09:20:00,54.0,45.9,29.83,South,180,3.4,6.9,74,0.00,,,0.10,WUHU216HW,2013-03-06 17:20:00,
2013-03-06 09:25:00,53.6,45.9,29.83,SW,225,3.6,6.9,75,0.00,,,0.10,WUHU216HW,2013-03-06 17:25:00,
2013-03-06 09:30:00,53.5,45.4,29.83,SW,225,4.0,4.0,74,0.00,,,0.10,WUHU216HW,2013-03-06 17:30:00,
2013-03-06 09:35:00,53.3,44.8,29.83,SSW,205,3.5,6.7,73,0.00,,,0.10,WUHU216HW,2013-03-06 17:35:00,
2013-03-06 09:40:00,53.3,45.2,29.83,SSE,158,4.3,6.7,74,0.00,,,0.10,WUHU216HW,2013-03-06 17:40:00,
2013-03-06 09:45:00,53.5,45.7,29.83,SW,215,3.5,5.1,75,0.00,,,0.10,WUHU216HW,2013-03-06 17:45:00,
2013-03-06 09:50:00,53.6,45.5,29.83,WSW,248,4.3,6.3,74,0.00,,,0.10,WUHU216HW,2013-03-06 17:50:00,
2013-03-06 09:55:00,54.2,46.1,29.84,SW,220,1.9,6.3,74,0.00,,,0.10,WUHU216HW,2013-03-06 17:55:00,
2013-03-06 10:00:00,55.1,46.9,29.84,SSW,203,3.4,5.8,74,0.00,,,0.10,WUHU216HW,2013-03-06 18:00:00,
2013-03-06 10:05:00,56.0,47.4,29.84,SW,225,7.4,7.4,73,0.00,,,0.10,WUHU216HW,2013-03-06 18:05:00,
2013-03-06 10:11:00,56.5,47.3,29.84,SSW,204,6.1,10.1,71,0.00,,,0.10,WUHU216HW,2013-03-06 18:11:00,
2013-03-06 10:16:00,56.9,46.8,29.84,South,180,4.7,10.1,69,0.00,,,0.10,WUHU216HW,2013-03-06 18:16:00,
2013-03-06 10:21:00,57.1,45.8,29.85,SW,225,6.3,10.1,66,0.00,,,0.10,WUHU216HW,2013-03-06 18:21:00,
2013-03-06 10:26:00,57.4,47.4,29.85,SSW,201,4.8,10.1,69,0.00,,,0.10,WUHU216HW,2013-03-06 18:26:00,
2013-03-06 10:31:00,58.0,46.6,29.85,SW,216,4.6,7.2,66,0.00,,,0.10,WUHU216HW,2013-03-06 18:31:00,
2013-03-06 10:36:00,58.0,46.3,29.85,South,182,4.9,8.1,65,0.00,,,0.10,WUHU216HW,2013-03-06 18:36:00,
2013-03-06 10:41:00,57.8,46.1,29.85,SSW,204,5.5,9.2,65,0.00,,,0.10,WUHU216HW,2013-03-06 18:41:00,
2013-03-06 10:46:00,57.4,45.7,29.86,SSW,194,3.7,9.2,65,0.00,,,0.10,WUHU216HW,2013-03-06 18:46:00,
2013-03-06 10:51:00,57.4,45.7,29.86,SSW,195,5.3,9.2,65,0.00,,,0.10,WUHU216HW,2013-03-06 18:51:00,
2013-03-06 10:56:00,57.2,45.5,29.86,South,180,4.9,7.6,65,0.00,,,0.10,WUHU216HW,2013-03-06 18:56:00,
2013-03-06 11:01:00,57.1,45.0,29.86,SSW,204,5.3,12.1,64,0.00,,,0.10,WUHU216HW,2013-03-06 19:01:00,
2013-03-06 11:06:00,56.9,44.8,29.86,South,189,4.7,12.1,64,0.00,,,0.10,WUHU216HW,2013-03-06 19:06:00,
2013-03-06 11:11:00,57.2,45.2,29.86,SSW,203,5.4,8.5,64,0.00,,,0.10,WUHU216HW,2013-03-06 19:11:00,
2013-03-06 11:16:00,57.8,45.6,29.87,SW,225,5.6,8.5,64,0.00,,,0.10,WUHU216HW,2013-03-06 19:16:00,
2013-03-06 11:21:00,58.1,45.6,29.87,SW,225,8.3,8.3,63,0.00,,,0.10,WUHU216HW,2013-03-06 19:21:00,
2013-03-06 11:26:00,58.3,45.4,29.87,South,179,4.9,8.3,62,0.00,,,0.10,WUHU216HW,2013-03-06 19:26:00,
2013-03-06 11:31:00,58.3,45.4,29.87,SSW,203,7.8,8.3,62,0.00,,,0.10,WUHU216HW,2013-03-06 19:31:00,
2013-03-06 11:36:00,58.0,44.2,29.87,South,176,4.9,7.8,60,0.00,,,0.10,WUHU216HW,2013-03-06 19:36:00,
2013-03-06 11:41:00,58.0,45.0,29.87,South,191,5.5,8.1,62,0.00,,,0.10,WUHU216HW,2013-03-06 19:41:00,
2013-03-06 11:46:00,58.0,45.0,29.86,South,187,4.5,9.6,62,0.00,,,0.10,WUHU216HW,2013-03-06 19:46:00,
2013-03-06 11:51:00,58.0,45.0,29.86,SW,225,4.3,9.6,62,0.00,,,0.10,WUHU216HW,2013-03-06 19:51:00,
2013-03-06 11:56:00,58.3,45.4,29.86,WSW,248,6.5,6.9,62,0.00,,,0.10,WUHU216HW,2013-03-06 19:56:00,
2013-03-06 12:01:00,58.5,45.6,29.86,SSW,203,4.3,10.5,62,0.00,,,0.10,WUHU216HW,2013-03-06 20:01:00,
2013-03-06 12:06:00,58.9,45.0,29.86,SW,214,4.7,10.5,60,0.00,,,0.10,WUHU216HW,2013-03-06 20:06:00,
2013-03-06 12:11:00,59.2,45.8,29.86,SSW,200,6.3,9.8,61,0.00,,,0.10,WUHU216HW,2013-03-06 20:11:00,
2013-03-06 12:16:00,59.4,45.1,29.86,SSW,203,7.6,9.8,59,0.00,,,0.10,WUHU216HW,2013-03-06 20:16:00,
2013-03-06 12:21:00,59.6,45.3,29.86,SSW,197,5.3,9.2,59,0.00,,,0.10,WUHU216HW,2013-03-06 20:21:00,
2013-03-06 12:26:00,59.8,45.5,29.85,SSW,201,6.6,9.2,59,0.00,,,0.10,WUHU216HW,2013-03-06 20:26:00,
2013-03-06 12:31:00,59.9,45.6,29.85,SW,225,5.8,9.2,59,0.00,,,0.10,WUHU216HW,2013-03-06 20:31:00,
2013-03-06 12:36:00,60.1,45.8,29.85,SSW,209,3.9,8.5,59,0.00,,,0.10,WUHU216HW,2013-03-06 20:36:00,
2013-03-06 12:41:00,60.5,45.6,29.85,South,177,4.8,9.8,58,0.00,,,0.10,WUHU216HW,2013-03-06 20:41:00,
2013-03-06 12:46:00,60.7,46.4,29.85,South,186,3.0,9.8,59,0.00,,,0.10,WUHU216HW,2013-03-06 20:46:00,
2013-03-06 12:51:00,61.2,46.4,29.86,South,172,3.8,7.6,58,0.00,,,0.10,WUHU216HW,2013-03-06 20:51:00,
2013-03-06 12:56:00,61.6,46.6,29.86,South,180,3.6,7.6,58,0.00,,,0.10,WUHU216HW,2013-03-06 20:56:00,
2013-03-06 13:01:00,61.9,46.5,29.85,South,180,7.6,7.6,57,0.00,,,0.10,WUHU216HW,2013-03-06 21:01:00,
2013-03-06 13:06:00,61.9,44.1,29.85,SSW,203,7.4,8.5,52,0.00,,,0.10,WUHU216HW,2013-03-06 21:06:00,
2013-03-06 13:11:00,61.6,43.7,29.85,SSW,211,6.1,8.5,52,0.00,,,0.10,WUHU216HW,2013-03-06 21:11:00,
2013-03-06 13:16:00,61.6,44.2,29.85,SW,214,4.2,7.6,53,0.00,,,0.10,WUHU216HW,2013-03-06 21:16:00,
2013-03-06 13:21:00,61.7,44.4,29.85,SW,225,6.3,7.8,53,0.00,,,0.10,WUHU216HW,2013-03-06 21:21:00,
2013-03-06 13:26:00,61.7,43.4,29.85,SSW,203,3.2,7.8,51,0.00,,,0.10,WUHU216HW,2013-03-06 21:26:00,
2013-03-06 13:31:00,62.1,44.2,29.85,South,190,4.2,6.9,52,0.00,,,0.10,WUHU216HW,2013-03-06 21:31:00,
2013-03-06 13:36:00,62.3,43.4,29.85,SSW,203,6.7,6.9,50,0.00,,,0.10,WUHU216HW,2013-03-06 21:36:00,
2013-03-06 13:41:00,62.1,43.7,29.85,South,180,4.7,6.9,51,0.00,,,0.10,WUHU216HW,2013-03-06 21:41:00,
2013-03-06 13:46:00,62.1,43.3,29.85,South,180,5.6,6.9,50,0.00,,,0.10,WUHU216HW,2013-03-06 21:46:00,
2013-03-06 13:51:00,62.1,43.7,29.85,SSW,203,4.9,8.5,51,0.00,,,0.10,WUHU216HW,2013-03-06 21:51:00,
2013-03-06 13:56:00,62.1,43.3,29.85,SSW,199,5.2,9.2,50,0.00,,,0.10,WUHU216HW,2013-03-06 21:56:00,
2013-03-06 14:01:00,61.9,43.1,29.85,SSW,202,3.8,9.2,50,0.00,,,0.10,WUHU216HW,2013-03-06 22:01:00,
2013-03-06 14:06:00,61.9,43.1,29.85,SW,225,7.4,7.4,50,0.00,,,0.10,WUHU216HW,2013-03-06 22:06:00,
2013-03-06 14:11:00,61.9,43.1,29.84,SSW,199,3.8,7.4,50,0.00,,,0.10,WUHU216HW,2013-03-06 22:11:00,
2013-03-06 14:16:00,62.3,43.9,29.84,SSW,213,2.8,7.4,51,0.00,,,0.10,WUHU216HW,2013-03-06 22:16:00,
2013-03-06 14:21:00,62.5,43.0,29.84,South,180,4.5,6.0,49,0.00,,,0.10,WUHU216HW,2013-03-06 22:21:00,
2013-03-06 14:26:00,62.6,42.6,29.84,SSW,203,7.6,8.1,48,0.00,,,0.10,WUHU216HW,2013-03-06 22:26:00,
2013-03-06 14:31:00,62.5,42.4,29.84,SSW,192,4.1,8.1,48,0.00,,,0.10,WUHU216HW,2013-03-06 22:31:00,
2013-03-06 14:35:00,62.6,42.0,29.84,SW,218,4.1,7.4,47,0.00,,,0.10,WUHU216HW,2013-03-06 22:35:00,
2013-03-06 14:40:00,62.5,41.9,29.84,South,180,1.8,7.6,47,0.00,,,0.10,WUHU216HW,2013-03-06 22:40:00,
2013-03-06 14:45:00,62.5,41.9,29.84,SSW,203,6.3,7.6,47,0.00,,,0.10,WUHU216HW,2013-03-06 22:45:00,
2013-03-06 14:50:00,62.6,42.0,29.84,SW,229,4.8,7.6,47,0.00,,,0.10,WUHU216HW,2013-03-06 22:50:00,
2013-03-06 14:55:00,62.5,41.3,29.84,SSW,203,5.8,7.6,46,0.00,,,0.10,WUHU216HW,2013-03-06 22:55:00,
2013-03-06 15:00:00,62.3,41.1,29.84,SSW,203,5.6,9.2,46,0.00,,,0.10,WUHU216HW,2013-03-06 23:00:00,
2013-03-06 15:05:00,61.9,39.6,29.84,SW,220,6.5,9.2,44,0.00,,,0.10,WUHU216HW,2013-03-06 23:05:00,
2013-03-06 15:10:00,61.6,39.9,29.84,SW,222,3.7,8.3,45,0.00,,,0.10,WUHU216HW,2013-03-06 23:10:00,
2013-03-06 15:15:00,61.6,39.9,29.84,SW,219,4.6,7.6,45,0.00,,,0.10,WUHU216HW,2013-03-06 23:15:00,
2013-03-06 15:20:00,61.7,41.2,29.84,SSW,210,2.5,7.6,47,0.00,,,0.10,WUHU216HW,2013-03-06 23:20:00,
2013-03-06 15:25:00,61.7,40.6,29.84,SW,216,5.1,9.2,46,0.00,,,0.10,WUHU216HW,2013-03-06 23:25:00,
2013-03-06 15:30:00,61.9,40.8,29.84,SW,225,4.0,9.2,46,0.00,,,0.10,WUHU216HW,2013-03-06 23:30:00,
2013-03-06 15:35:00,61.9,40.8,29.84,South,180,3.8,6.9,46,0.00,,,0.10,WUHU216HW,2013-03-06 23:35:00,
2013-03-06 15:40:00,61.7,40.1,29.84,SW,217,4.3,7.4,45,0.00,,,0.10,WUHU216HW,2013-03-06 23:40:00,
2013-03-06 15:45:00,61.7,40.6,29.84,SSW,203,4.3,7.4,46,0.00,,,0.10,WUHU216HW,2013-03-06 23:45:00,
2013-03-06 15:50:00,61.6,40.5,29.84,SW,225,6.9,6.9,46,0.00,,,0.10,WUHU216HW,2013-03-06 23:50:00,
2013-03-06 15:55:00,61.2,40.1,29.84,SW,225,4.0,6.9,46,0.00,,,0.10,WUHU216HW,2013-03-06 23:55:00,
2013-03-06 16:00:00,60.8,40.4,29.84,WSW,246,3.4,6.9,47,0.00,,,0.10,WUHU216HW,2013-03-07 00:00:00,
2013-03-06 16:05:00,60.5,40.1,29.84,SW,225,2.7,4.7,47,0.00,,,0.10,WUHU216HW,2013-03-07 00:05:00,
2013-03-06 16:10:00,60.5,40.1,29.84,SSE,158,3.8,5.4,47,0.00,,,0.10,WUHU216HW,2013-03-07 00:10:00,
2013-03-06 16:15:00,60.3,40.5,29.83,South,180,3.1,5.4,48,0.00,,,0.10,WUHU216HW,2013-03-07 00:15:00,
2013-03-06 16:20:00,60.1,39.8,29.83,South,187,2.6,5.1,47,0.00,,,0.10,WUHU216HW,2013-03-07 00:20:00,
2013-03-06 16:25:00,60.1,40.3,29.83,SW,214,3.0,6.5,48,0.00,,,0.10,WUHU216HW,2013-03-07 00:25:00,
2013-03-06 16:30:00,60.1,40.3,29.83,WSW,248,5.4,6.5,48,0.00,,,0.10,WUHU216HW,2013-03-07 00:30:00,
2013-03-06 16:35:00,59.8,40.0,29.83,SW,221,3.2,5.8,48,0.00,,,0.10,WUHU216HW,2013-03-07 00:35:00,
2013-03-06 16:40:00,59.6,40.4,29.83,SSW,205,2.2,5.8,49,0.00,,,0.10,WUHU216HW,2013-03-07 00:40:00,
2013-03-06 16:45:00,59.4,40.9,29.83,SW,226,2.6,5.8,50,0.00,,,0.10,WUHU216HW,2013-03-07 00:45:00,
2013-03-06 16:50:00,59.2,40.7,29.83,SW,231,3.6,5.8,50,0.00,,,0.10,WUHU216HW,2013-03-07 00:50:00,
2013-03-06 16:55:00,59.0,40.5,29.82,South,185,2.6,5.6,50,0.00,,,0.10,WUHU216HW,2013-03-07 00:55:00,
2013-03-06 17:00:00,58.9,40.8,29.82,SW,225,5.6,5.6,51,0.00,,,0.10,WUHU216HW,2013-03-07 01:00:00,
2013-03-06 17:05:00,58.7,41.1,29.82,SW,225,2.0,5.6,52,0.00,,,0.10,WUHU216HW,2013-03-07 01:05:00,
2013-03-06 17:10:00,58.3,41.8,29.82,WSW,248,5.1,5.6,54,0.00,,,0.10,WUHU216HW,2013-03-07 01:10:00,
2013-03-06 17:15:00,57.8,41.2,29.82,SW,225,2.5,5.1,54,0.00,,,0.10,WUHU216HW,2013-03-07 01:15:00,
2013-03-06 17:20:00,57.6,41.0,29.82,South,180,2.5,5.1,54,0.00,,,0.10,WUHU216HW,2013-03-07 01:20:00,
2013-03-06 17:25:00,57.2,40.8,29.82,SSW,203,1.8,4.3,54,0.00,,,0.10,WUHU216HW,2013-03-07 01:25:00,
2013-03-06 17:30:00,57.1,40.6,29.82,SW,225,4.3,4.3,54,0.00,,,0.10,WUHU216HW,2013-03-07 01:30:00,
2013-03-06 17:35:00,56.7,39.8,29.82,SSW,210,2.9,4.3,53,0.00,,,0.10,WUHU216HW,2013-03-07 01:35:00,
2013-03-06 17:40:00,56.5,39.6,29.83,SW,225,3.6,4.3,53,0.00,,,0.10,WUHU216HW,2013-03-07 01:40:00,
2013-03-06 17:45:00,56.2,38.7,29.83,SW,225,2.9,4.9,52,0.00,,,0.10,WUHU216HW,2013-03-07 01:45:00,
2013-03-06 17:50:00,55.8,38.3,29.83,SW,227,1.1,4.9,52,0.00,,,0.10,WUHU216HW,2013-03-07 01:50:00,
2013-03-06 17:55:00,55.4,38.5,29.83,SSW,203,1.1,3.4,53,0.00,,,0.10,WUHU216HW,2013-03-07 01:55:00,
2013-03-06 18:00:00,55.3,38.4,29.83,WSW,248,0.4,3.4,53,0.00,,,0.10,WUHU216HW,2013-03-07 02:00:00,
2013-03-06 18:05:00,55.1,38.6,29.82,SW,225,2.5,2.9,54,0.00,,,0.10,WUHU216HW,2013-03-07 02:05:00,
2013-03-06 18:10:00,54.5,38.2,29.82,SSW,206,1.3,2.5,54,0.00,,,0.10,WUHU216HW,2013-03-07 02:10:00,
2013-03-06 18:15:00,54.4,38.4,29.82,SW,232,1.0,3.4,55,0.00,,,0.10,WUHU216HW,2013-03-07 02:15:00,
2013-03-06 18:20:00,54.2,38.3,29.83,SW,217,1.5,3.4,55,0.00,,,0.10,WUHU216HW,2013-03-07 02:20:00,
2013-03-06 18:25:00,54.0,38.2,29.82,SSE,158,1.3,2.5,55,0.00,,,0.10,WUHU216HW,2013-03-07 02:25:00,
2013-03-06 18:30:00,53.6,38.3,29.82,WSW,248,0.8,2.9,56,0.00,,,0.10,WUHU216HW,2013-03-07 02:30:00,
2013-03-06 18:35:00,53.5,38.5,29.82,SW,225,0.7,2.9,57,0.00,,,0.10,WUHU216HW,2013-03-07 02:35:00,
2013-03-06 18:40:00,53.3,38.4,29.82,SW,234,0.7,1.8,57,0.00,,,0.10,WUHU216HW,2013-03-07 02:40:00,
2013-03-06 18:45:00,52.9,38.5,29.82,WSW,244,1.4,2.5,58,0.00,,,0.10,WUHU216HW,2013-03-07 02:45:00,
2013-03-06 18:50:00,52.9,38.5,29.82,WSW,248,0.4,2.5,58,0.00,,,0.10,WUHU216HW,2013-03-07 02:50:00,
2013-03-06 18:55:00,52.6,38.6,29.82,West,280,0.4,1.1,59,0.00,,,0.10,WUHU216HW,2013-03-07 02:55:00,
2013-03-06 19:00:00,52.4,38.4,29.81,SSW,203,0.9,0.9,59,0.00,,,0.10,WUHU216HW,2013-03-07 03:00:00,
2013-03-06 19:05:00,52.2,38.7,29.81,SW,225,0.9,1.8,60,0.00,,,0.10,WUHU216HW,2013-03-07 03:05:00,
2013-03-06 19:10:00,52.0,38.5,29.82,WSW,252,0.3,1.8,60,0.00,,,0.10,WUHU216HW,2013-03-07 03:10:00,
2013-03-06 19:15:00,51.8,38.8,29.82,WNW,285,0.3,1.1,61,0.00,,,0.10,WUHU216HW,2013-03-07 03:15:00,
2013-03-06 19:20:00,51.7,38.6,29.82,WSW,248,0.9,1.1,61,0.00,,,0.10,WUHU216HW,2013-03-07 03:20:00,
2013-03-06 19:25:00,51.5,38.9,29.82,SW,225,0.5,1.1,62,0.00,,,0.10,WUHU216HW,2013-03-07 03:25:00,
2013-03-06 19:30:00,51.3,38.7,29.82,SW,225,0.4,1.1,62,0.00,,,0.10,WUHU216HW,2013-03-07 03:30:00,
2013-03-06 19:35:00,51.1,38.9,29.82,SW,233,0.9,1.8,63,0.00,,,0.10,WUHU216HW,2013-03-07 03:35:00,
2013-03-06 19:40:00,50.9,38.7,29.82,WSW,248,0.3,1.8,63,0.00,,,0.10,WUHU216HW,2013-03-07 03:40:00,
2013-03-06 19:45:00,50.8,38.6,29.82,WSW,248,0.0,0.9,63,0.00,,,0.10,WUHU216HW,2013-03-07 03:45:00,
2013-03-06 19:50:00,50.6,38.8,29.82,WSW,248,0.0,0.2,64,0.00,,,0.10,WUHU216HW,2013-03-07 03:50:00,
2013-03-06 19:55:00,50.4,38.6,29.82,WSW,248,0.4,1.1,64,0.00,,,0.10,WUHU216HW,2013-03-07 03:55:00,
2013-03-06 20:00:00,50.0,38.4,29.82,SW,225,0.4,1.1,64,0.00,,,0.10,WUHU216HW,2013-03-07 04:00:00,
2013-03-06 20:05:00,49.9,38.2,29.82,SSW,203,0.9,1.8,64,0.00,,,0.10,WUHU216HW,2013-03-07 04:05:00,
2013-03-06 20:10:00,49.7,38.3,29.82,SW,225,0.9,1.8,65,0.00,,,0.10,WUHU216HW,2013-03-07 04:10:00,
2013-03-06 20:15:00,49.7,38.3,29.82,SW,229,0.4,1.6,65,0.00,,,0.10,WUHU216HW,2013-03-07 04:15:00,
2013-03-06 20:20:00,49.5,38.6,29.82,SW,225,1.1,1.6,66,0.00,,,0.10,WUHU216HW,2013-03-07 04:20:00,
2013-03-06 20:25:00,49.5,38.6,29.82,WSW,243,0.4,1.6,66,0.00,,,0.10,WUHU216HW,2013-03-07 04:25:00,
2013-03-06 20:30:00,49.5,38.6,29.82,SW,216,1.0,1.6,66,0.00,,,0.10,WUHU216HW,2013-03-07 04:30:00,
2013-03-06 20:35:00,49.3,38.4,29.82,WSW,239,0.5,1.6,66,0.00,,,0.10,WUHU216HW,2013-03-07 04:35:00,
2013-03-06 20:40:00,49.3,38.4,29.82,SW,219,1.0,2.9,66,0.00,,,0.10,WUHU216HW,2013-03-07 04:40:00,
2013-03-06 20:45:00,49.3,38.4,29.82,SW,224,0.7,2.9,66,0.00,,,0.10,WUHU216HW,2013-03-07 04:45:00,
2013-03-06 20:50:00,49.3,38.8,29.82,WSW,248,0.4,1.6,67,0.00,,,0.10,WUHU216HW,2013-03-07 04:50:00,
2013-03-06 20:55:00,49.1,38.6,29.82,WSW,248,1.1,1.6,67,0.00,,,0.10,WUHU216HW,2013-03-07 04:55:00,
2013-03-06 21:00:00,49.0,38.4,29.82,WSW,248,0.2,1.6,67,0.00,,,0.10,WUHU216HW,2013-03-07 05:00:00,
2013-03-06 21:05:00,48.8,38.3,29.82,WSW,248,0.2,1.1,67,0.00,,,0.10,WUHU216HW,2013-03-07 05:05:00,
2013-03-06 21:10:00,48.8,38.3,29.82,West,270,0.4,0.4,67,0.00,,,0.10,WUHU216HW,2013-03-07 05:10:00,
2013-03-06 21:15:00,48.6,38.1,29.82,WSW,248,0.3,0.4,67,0.00,,,0.10,WUHU216HW,2013-03-07 05:15:00,
2013-03-06 21:20:00,48.6,38.5,29.82,WSW,248,0.2,0.4,68,0.00,,,0.10,WUHU216HW,2013-03-07 05:20:00,
2013-03-06 21:25:00,48.4,38.4,29.82,WSW,248,0.2,1.1,68,0.00,,,0.10,WUHU216HW,2013-03-07 05:25:00,
2013-03-06 21:30:00,48.2,38.2,29.82,WSW,248,0.0,1.1,68,0.00,,,0.10,WUHU216HW,2013-03-07 05:30:00,
2013-03-06 21:35:00,48.1,38.0,29.82,WSW,248,0.0,0.2,68,0.00,,,0.10,WUHU216HW,2013-03-07 05:35:00,
2013-03-06 21:40:00,47.9,37.8,29.82,SSW,203,0.0,0.7,68,0.00,,,0.10,WUHU216HW,2013-03-07 05:40:00,
2013-03-06 21:45:00,47.7,38.0,29.82,SW,225,0.0,0.7,69,0.00,,,0.10,WUHU216HW,2013-03-07 05:45:00,
2013-03-06 21:50:00,47.5,37.9,29.82,WNW,300,0.8,1.1,69,0.00,,,0.10,WUHU216HW,2013-03-07 05:50:00,
2013-03-06 21:55:00,47.5,38.3,29.82,NW,315,0.4,1.1,70,0.00,,,0.10,WUHU216HW,2013-03-07 05:55:00,
2013-03-06 22:00:00,47.5,38.3,29.82,WNW,293,0.3,1.1,70,0.00,,,0.10,WUHU216HW,2013-03-07 06:00:00,
2013-03-06 22:05:00,47.7,38.7,29.82,WNW,293,0.0,1.1,71,0.00,,,0.10,WUHU216HW,2013-03-07 06:05:00,
2013-03-06 22:10:00,47.7,38.4,29.82,WNW,293,0.0,1.1,70,0.00,,,0.10,WUHU216HW,2013-03-07 06:10:00,
2013-03-06 22:15:00,47.7,38.4,29.82,WNW,293,0.0,0.0,70,0.00,,,0.10,WUHU216HW,2013-03-07 06:15:00,
2013-03-06 22:20:00,47.7,38.7,29.81,West,270,0.0,0.2,71,0.00,,,0.10,WUHU216HW,2013-03-07 06:20:00,
2013-03-06 22:25:00,47.7,38.7,29.81,West,270,0.0,0.2,71,0.00,,,0.10,WUHU216HW,2013-03-07 06:25:00,
2013-03-06 22:30:00,47.7,38.7,29.81,WNW,293,0.7,1.3,71,0.00,,,0.10,WUHU216HW,2013-03-07 06:30:00,
2013-03-06 22:35:00,47.7,38.7,29.81,West,270,0.0,1.3,71,0.00,,,0.10,WUHU216HW,2013-03-07 06:35:00,
2013-03-06 22:40:00,47.7,38.7,29.81,SSW,203,0.4,0.7,71,0.00,,,0.10,WUHU216HW,2013-03-07 06:40:00,
2013-03-06 22:45:00,47.7,38.7,29.81,SSW,203,0.4,1.1,71,0.00,,,0.10,WUHU216HW,2013-03-07 06:45:00,
2013-03-06 22:50:00,47.7,39.1,29.81,SSW,203,0.0,1.1,72,0.00,,,0.10,WUHU216HW,2013-03-07 06:50:00,
2013-03-06 22:55:00,47.7,39.1,29.81,SW,225,0.4,0.4,72,0.00,,,0.10,WUHU216HW,2013-03-07 06:55:00,
2013-03-06 23:00:00,47.5,38.9,29.81,SW,225,0.2,0.4,72,0.00,,,0.10,WUHU216HW,2013-03-07 07:00:00,
2013-03-06 23:05:00,47.5,38.9,29.80,SW,225,0.0,0.2,72,0.00,,,0.10,WUHU216HW,2013-03-07 07:05:00,
2013-03-06 23:10:00,47.3,38.8,29.81,SW,225,0.0,0.0,72,0.00,,,0.10,WUHU216HW,2013-03-07 07:10:00,
2013-03-06 23:15:00,47.2,38.6,29.80,SW,225,0.0,0.0,72,0.00,,,0.10,WUHU216HW,2013-03-07 07:15:00,
2013-03-06 23:20:00,47.2,38.6,29.80,SW,225,0.0,0.0,72,0.00,,,0.10,WUHU216HW,2013-03-07 07:20:00,
2013-03-06 23:25:00,47.2,38.6,29.80,SW,225,0.0,0.0,72,0.00,,,0.10,WUHU216HW,2013-03-07 07:25:00,
2013-03-06 23:30:00,47.2,38.6,29.80,SW,225,0.0,0.0,72,0.00,,,0.10,WUHU216HW,2013-03-07 07:30:00,
2013-03-06 23:35:00,47.2,39.0,29.80,SW,225,0.0,0.0,73,0.00,,,0.10,WUHU216HW,2013-03-07 07:35:00,
2013-03-06 23:40:00,47.2,39.0,29.80,SW,225,0.0,0.0,73,0.00,,,0.10,WUHU216HW,2013-03-07 07:40:00,
2013-03-06 23:45:00,47.2,39.0,29.81,SW,225,0.0,0.0,73,0.00,,,0.10,WUHU216HW,2013-03-07 07:45:00,
2013-03-06 23:50:00,47.2,39.2,29.81,SW,225,0.0,0.0,74,0.00,,,0.10,WUHU216HW,2013-03-07 07:50:00,
2013-03-06 23:55:00,47.2,39.2,29.81,SW,225,0.0,0.0,74,0.00,,,0.10,WUHU216HW,2013-03-07 07:55:00,